Bradshaw AFB, HI

8:30 PM HST on March 28, 2017 (GMT -1000)
Bradshaw Army Air Field

Weather History for PHSF - April, 2014

Change the Weather History Date:

Saturday, April 5, 2014

  Actual Average Record
Temperature  
Mean Temperature 53 °F -  
Max Temperature 63 °F 65 °F 75 °F (2005)
Min Temperature 43 °F 46 °F 43 °F (2014)
Degree Days  
Heating Degree Days 12    
Growing Degree Days 3 (Base 50)    
Moisture  
Dew Point 47 °F    
Average Humidity 85    
Maximum Humidity 100    
Minimum Humidity 54    
Precipitation  
Precipitation 0.00 in - - ()
Sea Level Pressure  
Sea Level Pressure 30.14 in    
Wind  
Wind Speed 4 mph (West)    
Max Wind Speed 15 mph    
Max Gust Speed 20 mph    
Visibility 8 miles    
Events Fog    
Averages and records for this station are not official NWS values.
T = Trace of Precipitation, MM = Missing Value Source: NWS Daily Summary

Daily Weather History Graph

Daily Weather History Graph

Search for Another Location

Airport or City:

Trip Planner

Search our weather history database for the weather conditions in past years. The results will help you decide how hot, cold, wet, or windy it might be!

Date:

Astronomy

Apr. 05, 2014 Rise Set
Actual Time 6:12 AM HST 6:37 PM HST
Civil Twilight 5:50 AM HST 6:59 PM HST
Nautical Twilight 5:24 AM HST 7:25 PM HST
Astronomical Twilight 4:58 AM HST 7:51 PM HST
Moon 10:56 AM HST (4/5) No Moon Set
Length of Visible Light 13h 09m
Length of Day
12h 25m
Waxing Crescent, 36% of the Moon is Illuminated
Apr 5
Waxing Crescent
Apr 6
First Quarter
Apr 14
Full
Apr 21
Last Quarter
Apr 28
New

Hourly Weather History & Observations

Time (HST) Temp. Windchill Dew Point Humidity Pressure Visibility Wind Dir Wind Speed Gust Speed Precip Events Conditions
12:56 AM 48.9 °F - 45.3 °F 87% 29.97 in 10.0 mi NW 3.5 mph - N/A   Clear
1:56 AM 44.8 °F - 42.4 °F 91% 29.99 in 10.0 mi ESE 2.3 mph - N/A   Clear
2:56 AM 44.2 °F 42.7 °F 42.3 °F 93% 29.97 in 9.0 mi North 3.5 mph - N/A   Scattered Clouds
3:01 AM 44.6 °F - 42.8 °F 93% 30.27 in 9.0 mi SSW 2.3 mph - N/A   Mostly Cloudy
3:21 AM 44.6 °F - 42.8 °F 93% 30.27 in 11.0 mi ESE 1.2 mph - N/A   Scattered Clouds
3:51 AM 46.4 °F - 44.6 °F 93% 30.27 in 9.0 mi ESE 2.3 mph - N/A   Mostly Cloudy
3:56 AM 46.4 °F - 44.6 °F 93% 29.97 in 10.0 mi ESE 2.3 mph - N/A   Mostly Cloudy
4:01 AM 48.2 °F - 44.6 °F 87% 30.27 in 10.0 mi ESE 1.2 mph - N/A   Mostly Cloudy
4:21 AM 48.2 °F - 46.4 °F 93% 30.27 in 9.0 mi Calm Calm - N/A   Mostly Cloudy
4:31 AM 48.2 °F - 46.4 °F 93% 30.27 in 9.0 mi North 2.3 mph - N/A   Mostly Cloudy
4:36 AM 48.2 °F - 46.4 °F 93% 30.27 in 8.0 mi North 1.2 mph - N/A   Scattered Clouds
4:41 AM 48.2 °F - 46.4 °F 93% 30.27 in 8.0 mi North 1.2 mph - N/A   Mostly Cloudy
4:56 AM 48.6 °F - 45.3 °F 89% 29.97 in 8.0 mi North 2.3 mph - N/A   Mostly Cloudy
5:16 AM 46.4 °F - 42.8 °F 87% 30.27 in 7.0 mi NNE 2.3 mph - N/A   Scattered Clouds
5:56 AM 43.5 °F 41.9 °F 41.2 °F 91% 30.00 in 8.0 mi East 3.5 mph - N/A   Clear
6:56 AM 44.4 °F 42.0 °F 38.7 °F 80% 30.03 in 10.0 mi ESE 4.6 mph - N/A   Clear
7:56 AM 54.0 °F - 46.6 °F 76% 30.01 in 5.0 mi West 1.2 mph - N/A   Clear
8:56 AM 57.6 °F - 45.1 °F 63% 30.00 in 12.0 mi SSE 2.3 mph - N/A   Clear
9:56 AM 61.2 °F - 44.2 °F 54% 30.00 in 12.0 mi West 3.5 mph - N/A   Clear
10:56 AM 63.0 °F - 49.1 °F 61% 29.98 in 12.0 mi West 8.1 mph - N/A   Clear
11:56 AM 62.6 °F - 49.6 °F 63% 29.99 in 11.0 mi West 10.4 mph 16.1 mph N/A   Clear
12:56 PM 63.0 °F - 52.2 °F 68% 29.98 in 9.0 mi West 8.1 mph 13.8 mph N/A   Partly Cloudy
1:56 PM 62.8 °F - 51.6 °F 67% 29.97 in 9.0 mi West 11.5 mph 19.6 mph N/A   Partly Cloudy
2:56 PM 61.2 °F - 53.4 °F 76% 29.96 in 9.0 mi West 15.0 mph 19.6 mph N/A   Scattered Clouds
3:56 PM 59.7 °F - 52.7 °F 78% 29.95 in 8.0 mi West 15.0 mph 19.6 mph N/A   Partly Cloudy
4:56 PM 56.5 °F - 51.6 °F 84% 29.96 in 7.0 mi WSW 6.9 mph - N/A   Partly Cloudy
5:41 PM 55.4 °F - 51.8 °F 88% 30.28 in 6.0 mi West 9.2 mph - N/A   Mostly Cloudy
5:51 PM 55.4 °F - 51.8 °F 88% 30.29 in 6.0 mi West 8.1 mph - N/A   Mostly Cloudy
5:56 PM 54.5 °F - 52.2 °F 92% 30.02 in 6.0 mi West 9.2 mph - N/A   Mostly Cloudy
6:06 PM 53.6 °F - 48.2 °F 82% 30.29 in 8.0 mi West 8.1 mph - N/A   Mostly Cloudy
6:46 PM 53.6 °F - 50.0 °F 88% 30.30 in 8.0 mi West 5.8 mph - N/A   Mostly Cloudy
6:56 PM 52.5 °F - 48.7 °F 87% 30.04 in 8.0 mi West 4.6 mph - N/A   Scattered Clouds
7:16 PM 51.8 °F - 50.0 °F 94% 30.30 in 7.0 mi WSW 4.6 mph - N/A   Mostly Cloudy
7:26 PM 51.8 °F - 50.0 °F 94% 30.31 in 7.0 mi WSW 4.6 mph - N/A   Mostly Cloudy
7:56 PM 51.4 °F - 50.7 °F 97% 30.03 in 4.0 mi West 6.9 mph - N/A   Mostly Cloudy
8:01 PM 51.8 °F - 50.0 °F 94% 30.32 in 1.2 mi West 5.8 mph - N/A   Mostly Cloudy
8:06 PM 51.8 °F - 50.0 °F 94% 30.32 in 0.4 mi West 4.6 mph - N/A Fog Fog
8:21 PM 50.0 °F - 50.0 °F 100% 30.33 in 2.8 mi West 4.6 mph - N/A   Mostly Cloudy
8:26 PM 50.0 °F - 50.0 °F 100% 30.33 in 6.0 mi West 4.6 mph - N/A   Mostly Cloudy
8:51 PM 51.8 °F - 48.2 °F 88% 30.34 in 7.0 mi SSW 1.2 mph - N/A   Scattered Clouds
8:56 PM 51.1 °F - 48.0 °F 89% 30.03 in 7.0 mi WSW 1.2 mph - N/A   Scattered Clouds
9:56 PM 49.8 °F - 45.9 °F 86% 30.05 in 8.0 mi North 2.3 mph - N/A   Scattered Clouds
10:56 PM 49.8 °F - 44.8 °F 83% 30.04 in 9.0 mi Calm Calm - N/A   Partly Cloudy
11:16 PM 50.0 °F - 44.6 °F 82% 30.36 in 9.0 mi NW 1.2 mph - N/A   Mostly Cloudy
11:31 PM 50.0 °F - 44.6 °F 82% 30.36 in 9.0 mi North 1.2 mph - N/A   Scattered Clouds
11:56 PM 48.6 °F - 44.1 °F 84% 30.04 in 9.0 mi NNE 2.3 mph - N/A   Mostly Cloudy